Location: Peach Mountain Observatory
(42.3967°N, 83.9367°W)
Time: 02:53:37
(UTC-05:00)

Envisat - Visible Passes

Search period start: 14 December 2019 00:00
Search period end: 24 December 2019 00:00
Orbit: 764 x 766 km, 98.1° (Epoch: 14 December)

Date Brightness Start Highest point End Pass type
(mag) Time Alt. Az. Time Alt. Az. Time Alt. Az.
14 Dec 3.6 07:14:12 10° NNE 07:19:15 64° E 07:24:17 10° S visible
14 Dec 2.9 18:29:10 10° SSE 18:34:15 88° ENE 18:39:22 10° NNW visible
14 Dec 6.2 20:12:52 10° W 20:13:56 11° W 20:15:00 10° WNW visible
15 Dec 5.2 06:37:54 10° NE 06:42:19 29° E 06:46:42 10° SSE visible
15 Dec 3.4 17:52:53 10° SE 17:57:36 41° ENE 18:02:20 10° N visible
15 Dec 5.2 19:32:39 10° SSW 19:36:45 24° W 19:40:52 10° NW visible
16 Dec 6.1 06:02:50 10° ENE 06:05:11 13° E 06:07:32 10° ESE visible
16 Dec 3.8 18:54:49 10° S 18:59:46 53° W 19:04:45 10° NNW visible
17 Dec 4.0 07:02:59 10° NNE 07:07:57 51° E 07:12:52 10° S visible
17 Dec 2.9 18:17:57 10° SSE 18:22:59 70° ENE 18:28:03 10° N visible
17 Dec 6.0 19:59:56 10° WSW 20:02:30 14° W 20:05:06 10° WNW visible
18 Dec 5.5 06:26:56 10° NE 06:30:57 23° E 06:34:57 10° SE visible
18 Dec 3.6 17:41:55 10° SE 17:46:24 33° ENE 17:50:54 10° N visible
18 Dec 4.9 19:20:56 10° SSW 19:25:23 30° W 19:29:52 10° NW visible
19 Dec 3.3 18:43:26 10° S 18:48:27 68° WSW 18:53:32 10° NNW visible
20 Dec 4.5 06:51:50 10° NNE 06:56:37 40° E 07:01:22 10° SSE visible
20 Dec 3.0 18:06:47 10° SSE 18:11:44 56° ENE 18:16:42 10° N visible
20 Dec 5.7 19:47:44 10° SW 19:51:06 18° W 19:54:29 10° NW visible
21 Dec 5.9 06:16:04 10° NE 06:19:34 18° E 06:23:03 10° SE visible
21 Dec 3.9 17:31:01 10° ESE 17:35:12 27° ENE 17:39:24 10° N visible
21 Dec 4.4 19:09:19 10° SSW 19:14:02 38° W 19:18:47 10° NNW visible
22 Dec 3.4 07:17:06 10° NNE 07:22:11 71° ESE 07:27:15 10° S visible
22 Dec 3.0 18:32:05 10° SSE 18:37:10 85° WSW 18:42:17 10° NNW visible
23 Dec 5.0 06:40:45 10° NNE 06:45:17 32° E 06:49:47 10° SSE visible
23 Dec 3.3 17:55:43 10° SE 18:00:30 44° ENE 18:05:19 10° N visible
23 Dec 5.4 19:35:47 10° SW 19:39:43 22° W 19:43:39 10° NW visible
